Location: El Escondido
(32.5691°N, 116.4250°W)
Time: 02:03:10
(UTC+00:00)

Hubble Space Telescope - Visible Passes

Search period start: 21 June 2024 00:00
Search period end: 01 July 2024 00:00
Orbit: 510 x 514 km, 28.5° (Epoch: 20 June)

Date Brightness Start Highest point End Pass type
(mag) Time Alt. Az. Time Alt. Az. Time Alt. Az.
23 Jun 3.1 12:08:28 10° SSE 12:09:23 11° SSE 12:10:19 10° SE visible
24 Jun 3.0 11:48:32 10° S 11:50:12 12° SSE 11:51:53 10° SE visible
25 Jun 2.8 11:29:21 11° S 11:31:01 14° SSE 11:33:09 10° SE visible
26 Jun 2.6 11:11:09 15° S 11:11:49 16° SSE 11:14:17 10° ESE visible
27 Jun 2.5 10:52:55 18° SSE 10:52:55 18° SSE 10:55:21 10° ESE visible
28 Jun 2.7 10:34:40 17° SE 10:34:40 17° SE 10:36:21 10° ESE visible
28 Jun 1.3 12:09:52 10° WSW 12:13:37 40° S 12:17:21 10° ESE visible
29 Jun 3.0 10:16:25 14° ESE 10:16:25 14° ESE 10:17:18 10° ESE visible
29 Jun 1.2 11:51:12 13° WSW 11:54:25 42° S 11:58:11 10° ESE visible
30 Jun 3.5 09:58:10 10° ESE 09:58:10 10° ESE 09:58:13 10° ESE visible
30 Jun 1.1 11:32:57 21° WSW 11:35:13 44° S 11:39:00 10° ESE visible
